Overview Statistics Trail Chart Weather Telemetry Raw packets
 

This is the latest recevied weather packets stored in our database for station/object OK1VOF-13. If no packets are shown the sender has not sent any weather packets the latest 10 day(s).

<< 20 21 22 23 24 25 26 >>
Time Temp. Humidity Pressure Rain* Wind** Luminosity Snow
1788358014 24.44° C 52% 1022.1 hPa 105.41 mm - - -
1788357712 24.44° C 52% 1022.2 hPa 105.41 mm - - -
1788356183 25° C 53% 1022.3 hPa 0 mm - - -
1788354682 24.44° C 54% 1022.4 hPa 0 mm - - -
1788354383 23.89° C 54% 1022.5 hPa 0 mm - - -
1788353786 23.89° C 55% 1022.6 hPa 0 mm - - -
1788353486 23.89° C 54% 1022.7 hPa 0 mm - - -
1788353194 23.89° C 54% 1022.7 hPa 0 mm - - -
1788352590 23.89° C 55% 1022.7 hPa 0 mm - - -
1788352291 23.33° C 56% 1022.9 hPa 0 mm - - -
1788351096 23.33° C 56% 1022.9 hPa 0 mm - - -
1788350206 22.78° C 56% 1023.1 hPa 0 mm - - -
1788349908 22.78° C 56% 1023.2 hPa 0 mm - - -
1788349609 22.78° C 57% 1023.3 hPa 0 mm - - -
1788349310 22.78° C 57% 1023.2 hPa 0 mm - - -
1788349011 22.78° C 57% 1023.2 hPa 0 mm - - -
1788348712 22.22° C 58% 1023.4 hPa 0 mm - - -
1788347816 22.22° C 58% 1023.4 hPa 0 mm - - -
1788347517 22.22° C 58% 1023.4 hPa 0 mm - - -
1788347212 21.67° C 59% 1023.5 hPa 0 mm - - -
1788346920 21.67° C 59% 1023.4 hPa 0 mm - - -
1788346614 21.67° C 60% 1023.3 hPa 0 mm - - -
1788346315 21.67° C 60% 1023.3 hPa 0 mm - - -
1788346027 21.67° C 60% 1023.4 hPa 0 mm - - -
1788345719 21.11° C 60% 1023.3 hPa 0 mm - - -

* Rain latest hour (hover to see other rain measurements)
** Current wind speed in m/s (hover to see current wind gust speed)